Regional Weather Roundup
Issued by NWS

Home | Current Version | Previous Version | Text Only | Print | Product List | Glossary On
Versions: 1 2 3 4 5 6 7 8 9 10 11 12 13 14 15 16 17 18 19 20 21 22 23 24 25 26 27 28 29 30 31 32 33 34 35 36 37 38 39 40 41 42 43 44 45 46 47 48 49 50
000
ASCA44 KEWX 122320
RWRMX

LATIN AMERICA AND CARIBBEAN REGIONAL WEATHER ROUNDUP
NATIONAL WEATHER SERVICE AUSTIN/SAN ANTONIO TX
500 PM CST FRI FEB 12 2016

NOTE: "FAIR" INDICATED FEW OR NO CLOUDS BELOW 12,000 FEET WITH NO
SIGNIFICANT WEATHER AND/OR OBSTRUCTIONS TO VISIBILITY.

BAJA CALIFORNIA

CITY           SKY/WX    TMP DP  RH WIND       PRES   REMARKS
LORETO         MOSUNNY   82  54  36 NE7       29.91F
LA PAZ         MOSUNNY   84  27  12 NE17      29.94F
MEXICALI       SUNNY     86  19   8 NW3       30.03F
S.J. DEL CABO  PTSUNNY   88  28  11 N16       29.91S
TIJUANA        SUNNY     79  23  12 W10       30.06S

NORTHWESTERN MEXICO

CITY           SKY/WX    TMP DP  RH WIND       PRES   REMARKS
CULIACAN       PTSUNNY   91  72  52 SW9       29.87F HX  98
DURANGO        PTSUNNY   70   0   6 N12       30.27F
GUAYMAS        SUNNY     79  55  44 SW12      29.86F
HERMOSILLO     MOSUNNY   97  25   7 S7        29.95F HX  90
CD. JUAREZ     SUNNY     75  30  19 CALM      30.24S
LOS MOCHIS     MOSUNNY   82  50  32 NW12      29.89F
OBREGON        MOSUNNY   86  55  35 W12       29.87F

NORTHEASTERN MEXICO

CITY           SKY/WX    TMP DP  RH WIND       PRES   REMARKS
CHIHUAHUA      SUNNY     75  14   9 E7        30.24F
MATAMOROS      MOSUNNY   75  61  60 SE14      30.20R
MONCLOVA         N/A    N/A N/A N/A MISG        N/A
MONTERREY      PTSUNNY   86  23  10 E9        30.11S
NUEVO LAREDO   SUNNY     90  45  20 CALM      30.11F
PIEDRAS NEGRAS SUNNY     84  57  39 E7        30.15F
REYNOSA        MOSUNNY   79  48  34 SE14      30.14R
SALTILLO       PTSUNNY   70  43  37 N12       30.30S
TORREON        PTSUNNY   79  21  11 CALM      30.21F
CD. VICTORIA   MOSUNNY   84  37  18 SE10      30.12R

WESTERN MEXICO

CITY           SKY/WX    TMP DP  RH WIND       PRES   REMARKS
AGUASCALIENTES SUNNY     75   3   6 NE6       30.24S
COLIMA         SUNNY     81  64  57 W14       29.92F
DEL BAJIO      SUNNY     75  12   9 NE9       30.26S
GUADALAJARA    SUNNY     73  19  13 S6        30.12F
MANZANILLO     MOSUNNY   82  73  74 SW9       29.80
MAZATLAN       PTSUNNY   86  64  48 W12       29.85F
P. VALLARTA    MOSUNNY   79  73  83 SW8       29.85F
URUAPAN        SUNNY     75  48  38 S12       30.12S
ZACATECAS      MOSUNNY   70  18  13 NE17      30.31S

CENTRAL MEXICO

CITY           SKY/WX    TMP DP  RH WIND       PRES   REMARKS
CUERNAVACA       N/A    N/A N/A N/A MISG        N/A
MEXICO CITY    SUNNY     72  16  12 NW15      30.26F
MORELIA        MOSUNNY   75  21  13 W17       30.17F
POZA RICA      SUNNY     77  61  57 E12       30.17R
PUEBLA         SUNNY     73  16  11 S3        30.26S
QUERETARO        N/A    N/A N/A N/A MISG        N/A
S. LUIS POTOSI SUNNY     70  10  10 E12G23    30.18F
TAMPICO        MOSUNNY   73  59  60 SE16      30.15R
TOLUCA         MOSUNNY   68  25  19 NE14      30.33R

SOUTHERN MEXICO

CITY           SKY/WX    TMP DP  RH WIND       PRES   REMARKS
ACAPULCO       SUNNY     84  72  65 W7        29.82R
B. DE HUATULCO MOSUNNY   84  70  61 SW8       29.90S
OAXACA         SUNNY     79  16   9 E12       30.14R
P. ESCONDIDO   MOSUNNY   81  73  78 SE12      29.95R
VERACRUZ       SUNNY     73  59  60 E10       30.16R
ZIHUATANEJO    SUNNY     86  73  66 SW6       29.81F HX  93

YUCATAN PENINSULA

CITY           SKY/WX    TMP DP  RH WIND       PRES   REMARKS
CAMPECHE       MOSUNNY   72  64  78 NW21      30.11R
CANCUN         PTCLDY    73  59  60 N5        30.15S
CHETUMAL       MOSUNNY   79  63  57 CALM      30.10R
CD. DEL CARMEN CLOUDY    73  64  73 N9        30.12S
COZUMEL        CLEAR     72  55  56 NE7       30.15R
MERIDA         SUNNY     77  54  44 N16       30.16R
MINATITLAN     CLOUDY    72  64  78 N12       30.09R
TAPACHULA      MOSUNNY   86  73  66 W9        29.87S HX  93
TUX. GUTIERREZ SUNNY     70  54  56 NW20G32   30.03R
VILLAHERMOSA   CLOUDY    75  63  64 N7        30.12S

CENTRAL AMERICA

CITY           SKY/WX    TMP DP  RH WIND       PRES   REMARKS
BELIZE CITY    PTSUNNY   75  68  78 NE7       30.09R
MANAGUA        PTCLDY    91  66  43 E21       29.80S HX  94

CARIBBEAN

CITY           SKY/WX    TMP DP  RH WIND       PRES   REMARKS
CURACAO        PTCLDY    79  73  83 SE15      29.94R
KINGSTON       MOCLDY    81  70  69 E8        30.00R
NASSAU         PTCLDY    73  46  38 N6        30.20S
SAN JUAN       PTCLDY    77  70  78 E13       30.06S
SANTO DOMINGO  PTCLDY    81  72  74 SE7       30.00S
ST. CROIX      CLEAR     79  70  73 E9        30.06
ST. KITTS      PTCLDY    79  70  73 E13       30.06R
ST. MAARTEN    PTCLDY    79  68  69 E13       30.06S
ST. THOMAS     CLEAR     77  70  78 E13       30.05

$$




USA.gov is the U.S. government's official web portal to all federal, state and local government web resources and services.